ヒル彗星

357P/Hill (2018)

English version
Home page
Updated on October 21, 2017

---------------------------------------------------------------------

・ プロフィール

符号 357P/2017 Q1
検出日 2017年8月18日
検出光度 21.8等
検出者 Pan-STARRS 1 telescope (Haleakala)

・ 軌道要素

Epoch 2018 June 11.0 TT = JDT 2458280.5
T 2018 May 28.96180 TT                                  MPCW
q   2.5265113            (2000.0)            P               Q
n   0.10442535     Peri.    1.52588     +0.69307544     -0.71672273
a   4.4661375      Node    44.60907     +0.66021139     +0.58813219
e   0.4342961      Incl.    6.30868     +0.28942591     +0.37471196
P   9.44
From 253 observations 2008 Sept. 28-2017 Aug. 18, mean residual 0".5.

・ 光度変化

        12.5 + 5 logΔ + 10.0 log r

---------------------------------------------------------------------

軌道要素はM.P.E.C. 2017-Q47に掲載されたものです。
光度グラフはComet for Windowsで作成したものです。

---------------------------------------------------------------------

Copyright(C) Seiichi Yoshida (comet@aerith.net). All rights reserved.